Location: Newark
(34.9500°N, 139.9667°E)
Time: 20:42:20
(UTC+00:00)

Explorer 11/Cluster Stage 4 - Visible Passes

Search period start: 08 December 2019 00:00
Search period end: 18 December 2019 00:00
Orbit: 467 x 1259 km, 28.8° (Epoch: 07 December)

Date Brightness Start Highest point End Pass type
(mag) Time Alt. Az. Time Alt. Az. Time Alt. Az.
14 Dec 10.1 19:59:13 10° SSE 20:01:02 11° SSE 20:02:50 10° SE visible
15 Dec 9.9 19:46:36 10° S 19:50:04 13° SSE 19:53:31 10° ESE visible
16 Dec 9.8 19:34:42 10° S 19:39:06 16° SSE 19:43:30 10° ESE visible
17 Dec 9.7 19:23:06 10° S 19:28:06 18° SSE 19:33:13 10° ESE visible
17 Dec 8.9 21:09:14 10° SW 21:16:41 38° SSE 21:23:53 10° E visible
